Tracking 26492 objects as of 8-Dec-2022
HD Live streaming from Space Station
objects crossing your sky now

STARLINK-5290

Track STARLINK-5290 now!
10-day predictions
STARLINK-5290 is classified as:


NORAD ID: 54157
Int'l Code: 2022-141A
Perigee: 527.9 km
Apogee: 530.5 km
Inclination: 53.2 °
Period: 95.1 minutes
Semi major axis: 6900 km
RCS: Unknown
Launch date: October 28, 2022
Source: United States (US)
Launch site: AIR FORCE WESTERN TEST RANGE (AFWTR)
aabbcc
Your satellite tracking list
Your tracking list is empty




NASA's NSSDC Master Catalog

Two Line Element Set (TLE):
1 54157U 22141A   22342.25001157 -.01205498  00000-0 -70245-1 0  9996
2 54157  53.2175 304.8398 0001828  35.5209 293.0487 15.14646748  6459
Source of the keplerian elements: AFSPC